{"data":{"norad_id":66037,"intl_designator":"2025-233E","name":"QIANFAN-95","alt_names":[],"object_type":"PAYLOAD","status":"ACTIVE","operator":null,"country":"PRC","launch_date":"2025-10-17","launch_site_code":"TAISC","launch_vehicle":null,"mission":null,"orbit_class":"UNKNOWN","rcs_meters":null,"size_class":null,"mass_kg":null,"dimensions":null,"purposes":[],"wikipedia_slug":null,"has_3d_model":false,"image_url":null,"decayed_at":null,"tle_current":{"epoch":"2026-05-24T23:08:08.050848Z","epoch_age_seconds":77845,"freshness":"FRESH","line1":"1 66037U 25233E   26144.96398207  .00000128  00000+0  17974-3 0  9999","line2":"2 66037  89.0024  45.0055 0001990  69.1628 290.9736 13.51007248 30344","mean_motion":13.51007248,"eccentricity":0.000199,"inclination_deg":89.0024,"raan_deg":45.0055,"arg_perigee_deg":69.1628,"mean_anomaly_deg":290.9736,"bstar":0.00017974,"rev_number":3034,"period_min":106.58714097439,"perigee_km":1067.0730596584,"apogee_km":1070.036843055,"semimajor_km":7446.6919513567,"source":"CELESTRAK","updated_at":"2026-05-25T13:38:05.919828Z"}}}